EA3BIN-13 Weather Reports


time (UTC)temp
C
wind
direction
speed
KPH
gust
KPH
rain 1hr
cm
rain 24hr
cm
rain mn
cm
humidity
%
barometer
mb
20260507145918 33 0.0 0.0 0.00 0.00 0.00 29 1008.9
20260507144918 28 0.0 0.0 0.00 0.00 0.00 36 1009.9
20260507143918 32 0.0 0.0 0.00 0.00 0.00 28 1009.2
20260507142924 35 0.0 0.0 0.00 0.00 0.00 27 1008.9
20260507141918 32 0.0 0.0 0.00 0.00 0.00 31 1009.7
20260507140918 33 0.0 0.0 0.00 0.00 0.00 30 1009.4
20260507135918 24 0.0 0.0 0.00 0.00 0.00 47 1011.2
20260507134918 27 0.0 0.0 0.00 0.00 0.00 40 1010.4
20260507133918 24 0.0 0.0 0.00 0.00 0.00 48 1011.2
20260507132918 25 0.0 0.0 0.00 0.00 0.00 46 1011.1
20260507131918 25 0.0 0.0 0.00 0.00 0.00 47 1011.1
20260507130929 23 0.0 0.0 0.00 0.00 0.00 53 1011.5
20260507125923 24 0.0 0.0 0.00 0.00 0.00 51 1011.5
20260507124918 24 0.0 0.0 0.00 0.00 0.00 50 1011.5
20260507123918 23 0.0 0.0 0.00 0.00 0.00 49 1011.6
20260507122923 22 0.0 0.0 0.00 0.00 0.00 54 1012.0
20260507121918 21 0.0 0.0 0.00 0.00 0.00 56 1012.3
20260507120918 24 0.0 0.0 0.00 0.00 0.00 47 1011.6
20260507115918 25 0.0 0.0 0.00 0.00 0.00 43 1011.7
20260507114918 25 0.0 0.0 0.00 0.00 0.00 46 1011.7
20260507113918 25 0.0 0.0 0.00 0.00 0.00 46 1011.6
20260507112918 25 0.0 0.0 0.00 0.00 0.00 48 1011.8
20260507111923 23 0.0 0.0 0.00 0.00 0.00 49 1012.2
20260507110918 22 0.0 0.0 0.00 0.00 0.00 53 1012.7
20260507105918 22 0.0 0.0 0.00 0.00 0.00 51 1012.7
20260507104918 22 0.0 0.0 0.00 0.00 0.00 55 1012.9
20260507103918 22 0.0 0.0 0.00 0.00 0.00 56 1013.1
20260507102918 22 0.0 0.0 0.00 0.00 0.00 57 1013.1
20260507101918 21 0.0 0.0 0.00 0.00 0.00 61 1013.3
20260507100918 20 0.0 0.0 0.00 0.00 0.00 66 1013.7
20260507095923 21 0.0 0.0 0.00 0.00 0.00 63 1013.5
20260507094918 19 0.0 0.0 0.00 0.00 0.00 65 1013.7
20260507093918 20 0.0 0.0 0.00 0.00 0.00 63 1013.6
20260507092918 20 0.0 0.0 0.00 0.00 0.00 64 1013.8
20260507091924 20 0.0 0.0 0.00 0.00 0.00 70 1013.8
20260507090950 17 0.0 0.0 0.00 0.00 0.00 80 1014.2
20260507085918 18 0.0 0.0 0.00 0.00 0.00 82 1013.8
20260507084918 20 0.0 0.0 0.00 0.00 0.00 73 1013.6
20260507083918 18 0.0 0.0 0.00 0.00 0.00 89 1013.8
20260507082918 18 0.0 0.0 0.00 0.00 0.00 10 1014.0
20260507081918 17 0.0 0.0 0.00 0.00 0.00 10 1014.2
20260507080918 16 0.0 0.0 0.00 0.00 0.00 10 1014.4
20260507075918 15 0.0 0.0 0.00 0.00 0.00 10 1014.7
20260507074918 15 0.0 0.0 0.00 0.00 0.00 10 1014.7
20260507073918 15 0.0 0.0 0.00 0.00 0.00 10 1015.0
20260507072924 13 0.0 0.0 0.00 0.00 0.00 10 1015.1
20260507071918 12 0.0 0.0 0.00 0.00 0.00 10 1015.3
20260507070918 12 0.0 0.0 0.00 0.00 0.00 10 1015.4
20260507065918 11 0.0 0.0 0.00 0.00 0.00 10 1015.5
20260507064929 11 0.0 0.0 0.00 0.00 0.00 10 1015.4
20260507063923 10 0.0 0.0 0.00 0.00 0.00 10 1015.3
20260507062918 10 0.0 0.0 0.00 0.00 0.00 10 1015.4
20260507061920 10 0.0 0.0 0.00 0.00 0.00 10 1015.2
20260507060918 10 0.0 0.0 0.00 0.00 0.00 10 1015.2
20260507055919 10 0.0 0.0 0.00 0.00 0.00 10 1015.1
20260507054918 10 0.0 0.0 0.00 0.00 0.00 10 1015.2
20260507053918 9 0.0 0.0 0.00 0.00 0.00 10 1015.2
20260507052918 9 0.0 0.0 0.00 0.00 0.00 10 1015.1
20260507051918 8 0.0 0.0 0.00 0.00 0.00 10 1015.1
20260507050919 8 0.0 0.0 0.00 0.00 0.00 10 1015.1
20260507045924 8 0.0 0.0 0.00 0.00 0.00 10 1015.1
20260507044918 8 0.0 0.0 0.00 0.00 0.00 10 1015.0
20260507043918 8 0.0 0.0 0.00 0.00 0.00 10 1015.0
20260507042918 8 0.0 0.0 0.00 0.00 0.00 10 1015.0
20260507041918 8 0.0 0.0 0.00 0.00 0.00 10 1015.0
20260507040918 8 0.0 0.0 0.00 0.00 0.00 10 1015.1
20260507035918 8 0.0 0.0 0.00 0.00 0.00 10 1015.0
20260507034918 8 0.0 0.0 0.00 0.00 0.00 10 1015.0
20260507033918 8 0.0 0.0 0.00 0.00 0.00 10 1015.0
20260507032918 8 0.0 0.0 0.00 0.00 0.00 10 1015.1
20260507031918 8 0.0 0.0 0.00 0.00 0.00 10 1015.0
20260507030918 8 0.0 0.0 0.00 0.00 0.00 10 1015.1
20260507025918 8 0.0 0.0 0.00 0.00 0.00 10 1015.1
20260507024919 8 0.0 0.0 0.00 0.00 0.00 10 1015.0
20260507023918 8 0.0 0.0 0.00 0.00 0.00 10 1014.8
20260507022918 9 0.0 0.0 0.00 0.00 0.00 10 1014.8
20260507021919 9 0.0 0.0 0.00 0.00 0.00 10 1014.7
20260507020924 9 0.0 0.0 0.00 0.00 0.00 10 1014.7
20260507015924 9 0.0 0.0 0.00 0.00 0.00 10 1014.7
20260507014918 9 0.0 0.0 0.00 0.00 0.00 10 1015.0
20260507013918 9 0.0 0.0 0.00 0.00 0.00 10 1015.1
20260507012924 10 0.0 0.0 0.00 0.00 0.00 10 1015.0
20260507011924 9 0.0 0.0 0.00 0.00 0.00 10 1014.9
20260507010919 10 0.0 0.0 0.00 0.00 0.00 10 1014.8
20260507005919 10 0.0 0.0 0.00 0.00 0.00 10 1014.9
20260507004918 10 0.0 0.0 0.00 0.00 0.00 10 1014.9
20260507003918 10 0.0 0.0 0.00 0.00 0.00 10 1015.0
20260507002924 10 0.0 0.0 0.00 0.00 0.00 10 1014.9
20260507001918 10 0.0 0.0 0.00 0.00 0.00 10 1014.9
20260507000918 10 0.0 0.0 0.00 0.00 0.00 10 1015.0
20260506235919 10 0.0 0.0 0.00 0.00 0.00 10 1014.9
20260506234918 11 0.0 0.0 0.00 0.00 0.00 10 1014.8
20260506233918 11 0.0 0.0 0.00 0.00 0.00 10 1014.8
20260506232919 12 0.0 0.0 0.00 0.00 0.00 10 1014.7
20260506231919 12 0.0 0.0 0.00 0.00 0.00 10 1014.7
20260506230924 12 0.0 0.0 0.00 0.00 0.00 10 1014.6
20260506225918 12 0.0 0.0 0.00 0.00 0.00 10 1014.6
20260506224924 12 0.0 0.0 0.00 0.00 0.00 10 1014.6
20260506223929 12 0.0 0.0 0.00 0.00 0.00 10 1014.5
20260506222918 12 0.0 0.0 0.00 0.00 0.00 10 1014.6
20260506221918 12 0.0 0.0 0.00 0.00 0.00 10 1014.4
20260506220918 12 0.0 0.0 0.00 0.00 0.00 10 1014.5
20260506215918 12 0.0 0.0 0.00 0.00 0.00 10 1014.4
20260506214918 12 0.0 0.0 0.00 0.00 0.00 10 1014.5
20260506213918 12 0.0 0.0 0.00 0.00 0.00 10 1014.4
20260506212919 12 0.0 0.0 0.00 0.00 0.00 10 1014.2
20260506211918 12 0.0 0.0 0.00 0.00 0.00 10 1014.3
20260506210919 13 0.0 0.0 0.00 0.00 0.00 10 1014.1
20260506205919 13 0.0 0.0 0.00 0.00 0.00 10 1014.1
20260506204919 13 0.0 0.0 0.00 0.00 0.00 10 1014.0
20260506203919 12 0.0 0.0 0.00 0.00 0.00 10 1014.0
20260506202918 12 0.0 0.0 0.00 0.00 0.00 10 1013.9
20260506201923 13 0.0 0.0 0.00 0.00 0.00 10 1013.6
20260506200918 13 0.0 0.0 0.00 0.00 0.00 10 1013.5
20260506195918 13 0.0 0.0 0.00 0.00 0.00 10 1013.4
20260506194918 13 0.0 0.0 0.00 0.00 0.00 10 1013.2
20260506193918 13 0.0 0.0 0.00 0.00 0.00 10 1012.9
20260506192918 13 0.0 0.0 0.00 0.00 0.00 10 1012.8
20260506191918 14 0.0 0.0 0.00 0.00 0.00 10 1012.5
20260506190918 14 0.0 0.0 0.00 0.00 0.00 10 1012.4
20260506185918 14 0.0 0.0 0.00 0.00 0.00 10 1012.2
20260506184919 15 0.0 0.0 0.00 0.00 0.00 10 1011.9
20260506183918 15 0.0 0.0 0.00 0.00 0.00 94 1011.7
20260506182919 16 0.0 0.0 0.00 0.00 0.00 85 1011.5
20260506181929 16 0.0 0.0 0.00 0.00 0.00 82 1011.3
20260506180924 19 0.0 0.0 0.00 0.00 0.00 48 1010.8
20260506175919 27 0.0 0.0 0.00 0.00 0.00 31 1009.1
20260506174918 26 0.0 0.0 0.00 0.00 0.00 38 1009.2
20260506173924 23 0.0 0.0 0.00 0.00 0.00 49 1009.6
20260506172919 17 0.0 0.0 0.00 0.00 0.00 71 1010.6
20260506171918 19 0.0 0.0 0.00 0.00 0.00 54 1010.4
20260506170919 22 0.0 0.0 0.00 0.00 0.00 41 1009.8
20260506165918 35 0.0 0.0 0.00 0.00 0.00 24 1007.6
20260506164918 35 0.0 0.0 0.00 0.00 0.00 24 1007.6
20260506163919 40 0.0 0.0 0.00 0.00 0.00 21 1006.7
20260506162918 22 0.0 0.0 0.00 0.00 0.00 46 1009.5
20260506161919 26 0.0 0.0 0.00 0.00 0.00 39 1008.7
20260506160918 21 0.0 0.0 0.00 0.00 0.00 45 1009.6
20260506155919 22 0.0 0.0 0.00 0.00 0.00 38 1009.4
20260506154918 22 0.0 0.0 0.00 0.00 0.00 34 1009.3
20260506153919 31 0.0 0.0 0.00 0.00 0.00 23 1007.9
20260506152918 34 0.0 0.0 0.00 0.00 0.00 19 1007.3
20260506151919 30 0.0 0.0 0.00 0.00 0.00 28 1008.1
20260506150919 31 0.0 0.0 0.00 0.00 0.00 22 1008.1